| time (UTC) | temp C | wind direction | speed KPH | gust KPH | rain 1hr cm | rain 24hr cm | rain mn cm | humidity % | barometer mb |
| 20260906132836 | 20 | 281 | 14.5 | 24.1 | 0.00 | 0.51 | 0.00 | 54 | 1025.8 |
| 20260906132336 | 20 | 277 | 6.4 | 22.5 | 0.00 | 0.51 | 0.00 | 56 | 1025.7 |
| 20260906131814 | 20 | 277 | 9.7 | 25.7 | 0.00 | 0.51 | 0.00 | 57 | 1025.7 |
| 20260906131316 | 20 | 276 | 12.9 | 24.1 | 0.00 | 0.51 | 0.00 | 56 | 1025.8 |
| 20260906130840 | 20 | 264 | 11.3 | 20.9 | 0.00 | 0.51 | 0.00 | 55 | 1025.7 |
| 20260906130343 | 20 | 314 | 6.4 | 19.3 | 0.00 | 0.51 | 0.00 | 56 | 1025.8 |
| 20260906125826 | 20 | 303 | 11.3 | 19.3 | 0.00 | 0.51 | 0.00 | 56 | 1025.8 |
| 20260906125350 | 20 | 262 | 8.0 | 16.1 | 0.00 | 0.51 | 0.00 | 55 | 1025.9 |
| 20260906124827 | 20 | 278 | 8.0 | 19.3 | 0.00 | 0.51 | 0.00 | 56 | 1025.7 |
| 20260906124330 | 19 | 282 | 12.9 | 29.0 | 0.00 | 0.51 | 0.00 | 54 | 1025.7 |
| 20260906123851 | 19 | 288 | 12.9 | 29.0 | 0.00 | 0.51 | 0.00 | 55 | 1025.9 |
| 20260906123323 | 19 | 260 | 11.3 | 24.1 | 0.00 | 0.51 | 0.00 | 56 | 1025.7 |
| 20260906122846 | 18 | 278 | 14.5 | 24.1 | 0.00 | 0.51 | 0.00 | 58 | 1025.9 |
| 20260906122326 | 18 | 269 | 12.9 | 25.7 | 0.00 | 0.51 | 0.00 | 57 | 1025.8 |
| 20260906121826 | 18 | 219 | 11.3 | 19.3 | 0.00 | 0.51 | 0.00 | 56 | 1025.8 |
| 20260906121347 | 19 | 233 | 8.0 | 19.3 | 0.00 | 0.51 | 0.00 | 56 | 1025.8 |
| 20260906120827 | 19 | 289 | 6.4 | 19.3 | 0.00 | 0.51 | 0.00 | 56 | 1025.8 |
| 20260906120328 | 19 | 269 | 9.7 | 19.3 | 0.00 | 0.51 | 0.00 | 55 | 1025.8 |
| 20260906115829 | 18 | 324 | 8.0 | 24.1 | 0.00 | 0.51 | 0.00 | 58 | 1025.8 |
| 20260906115330 | 18 | 277 | 9.7 | 24.1 | 0.00 | 0.51 | 0.00 | 58 | 1025.8 |
| 20260906114852 | 18 | 316 | 9.7 | 19.3 | 0.00 | 0.51 | 0.00 | 58 | 1025.7 |
| 20260906114314 | 18 | 46 | 11.3 | 29.0 | 0.00 | 0.51 | 0.00 | 55 | 1025.8 |
| 20260906113816 | 18 | 224 | 11.3 | 29.0 | 0.00 | 0.51 | 0.00 | 58 | 1025.8 |
| 20260906113318 | 18 | 259 | 9.7 | 20.9 | 0.00 | 0.51 | 0.00 | 58 | 1025.8 |
| 20260906112821 | 18 | 281 | 11.3 | 24.1 | 0.00 | 0.51 | 0.00 | 60 | 1025.9 |
| 20260906112322 | 18 | 271 | 9.7 | 24.1 | 0.00 | 0.51 | 0.00 | 59 | 1025.8 |
| 20260906111823 | 18 | 281 | 16.1 | 24.1 | 0.00 | 0.51 | 0.00 | 56 | 1025.8 |
| 20260906111343 | 18 | 278 | 4.8 | 20.9 | 0.00 | 0.51 | 0.00 | 59 | 1025.6 |
| 20260906110824 | 18 | 321 | 9.7 | 16.1 | 0.00 | 0.51 | 0.00 | 62 | 1025.6 |
| 20260906110342 | 17 | 276 | 4.8 | 14.5 | 0.00 | 0.51 | 0.00 | 64 | 1025.6 |
| 20260906105823 | 17 | 267 | 4.8 | 16.1 | 0.00 | 0.51 | 0.00 | 63 | 1025.6 |
| 20260906105324 | 18 | 13 | 8.0 | 16.1 | 0.00 | 0.51 | 0.00 | 62 | 1025.7 |
| 20260906104827 | 18 | 283 | 8.0 | 17.7 | 0.00 | 0.51 | 0.00 | 61 | 1025.6 |
| 20260906104315 | 18 | 286 | 8.0 | 17.7 | 0.00 | 0.51 | 0.00 | 61 | 1025.5 |
| 20260906103818 | 18 | 259 | 11.3 | 17.7 | 0.00 | 0.51 | 0.00 | 61 | 1025.5 |
| 20260906103320 | 18 | 264 | 4.8 | 16.1 | 0.00 | 0.51 | 0.00 | 62 | 1025.6 |
| 20260906102822 | 18 | 274 | 8.0 | 16.1 | 0.00 | 0.51 | 0.00 | 61 | 1025.5 |
| 20260906102325 | 18 | 358 | 6.4 | 17.7 | 0.00 | 0.51 | 0.00 | 63 | 1025.7 |
| 20260906101829 | 18 | 274 | 6.4 | 17.7 | 0.00 | 0.51 | 0.00 | 65 | 1025.7 |
| 20260906101329 | 17 | 281 | 11.3 | 17.7 | 0.00 | 0.51 | 0.00 | 65 | 1025.7 |
| 20260906100846 | 17 | 262 | 6.4 | 14.5 | 0.00 | 0.51 | 0.00 | 67 | 1025.6 |
| 20260906100346 | 17 | 279 | 4.8 | 16.1 | 0.00 | 0.51 | 0.00 | 68 | 1025.7 |
| 20260906095825 | 17 | 293 | 9.7 | 16.1 | 0.00 | 0.51 | 0.00 | 67 | 1025.7 |
| 20260906095327 | 17 | 255 | 8.0 | 19.3 | 0.00 | 0.51 | 0.00 | 67 | 1025.6 |
| 20260906094830 | 17 | 276 | 8.0 | 19.3 | 0.00 | 0.51 | 0.00 | 65 | 1025.6 |
| 20260906094331 | 17 | 259 | 6.4 | 27.4 | 0.00 | 0.51 | 0.00 | 66 | 1025.6 |
| 20260906093814 | 17 | 287 | 14.5 | 27.4 | 0.00 | 0.51 | 0.00 | 66 | 1025.7 |
| 20260906093330 | 17 | 277 | 9.7 | 24.1 | 0.00 | 0.51 | 0.00 | 69 | 1025.6 |
| 20260906092832 | 17 | 249 | 14.5 | 24.1 | 0.00 | 0.51 | 0.00 | 68 | 1025.6 |
| 20260906092314 | 17 | 13 | 9.7 | 20.9 | 0.00 | 0.51 | 0.00 | 67 | 1025.6 |
| 20260906091816 | 17 | 285 | 8.0 | 17.7 | 0.00 | 0.51 | 0.00 | 69 | 1025.7 |
| 20260906091327 | 17 | 278 | 6.4 | 25.7 | 0.00 | 0.51 | 0.00 | 69 | 1025.6 |
| 20260906090827 | 17 | 252 | 9.7 | 25.7 | 0.00 | 0.51 | 0.00 | 68 | 1025.7 |
| 20260906090329 | 17 | 237 | 4.8 | 19.3 | 0.00 | 0.51 | 0.00 | 71 | 1025.7 |
| 20260906085813 | 17 | 271 | 9.7 | 19.3 | 0.00 | 0.51 | 0.00 | 71 | 1025.7 |
| 20260906085343 | 17 | 269 | 8.0 | 20.9 | 0.00 | 0.51 | 0.00 | 70 | 1025.7 |
| 20260906084824 | 17 | 267 | 6.4 | 20.9 | 0.00 | 0.51 | 0.00 | 72 | 1025.6 |
| 20260906084326 | 16 | 274 | 6.4 | 24.1 | 0.00 | 0.51 | 0.00 | 73 | 1025.5 |
| 20260906083829 | 16 | 296 | 12.9 | 24.1 | 0.00 | 0.51 | 0.00 | 72 | 1025.6 |
| 20260906083330 | 16 | 332 | 6.4 | 24.1 | 0.00 | 0.51 | 0.00 | 74 | 1025.5 |
| 20260906082815 | 16 | 257 | 12.9 | 24.1 | 0.00 | 0.51 | 0.00 | 74 | 1025.5 |
| 20260906082318 | 16 | 280 | 8.0 | 20.9 | 0.00 | 0.51 | 0.00 | 74 | 1025.4 |
| 20260906081819 | 16 | 279 | 9.7 | 20.9 | 0.00 | 0.51 | 0.00 | 75 | 1025.6 |
| 20260906081324 | 16 | 290 | 9.7 | 17.7 | 0.00 | 0.51 | 0.00 | 76 | 1025.6 |
| 20260906080827 | 16 | 336 | 6.4 | 24.1 | 0.00 | 0.51 | 0.00 | 77 | 1025.4 |
| 20260906080312 | 16 | 272 | 12.9 | 24.1 | 0.00 | 0.51 | 0.00 | 76 | 1025.3 |
| 20260906075828 | 15 | 261 | 9.7 | 16.1 | 0.00 | 0.51 | 0.00 | 76 | 1025.3 |
| 20260906075330 | 15 | 326 | 6.4 | 17.7 | 0.00 | 0.51 | 0.00 | 77 | 1025.3 |
| 20260906074812 | 15 | 286 | 9.7 | 17.7 | 0.00 | 0.51 | 0.00 | 77 | 1025.2 |
| 20260906074313 | 15 | 278 | 4.8 | 17.7 | 0.00 | 0.51 | 0.00 | 79 | 1025.2 |
| 20260906073816 | 15 | 299 | 8.0 | 22.5 | 0.00 | 0.51 | 0.00 | 80 | 1025.2 |
| 20260906073319 | 15 | 293 | 3.2 | 24.1 | 0.00 | 0.51 | 0.00 | 81 | 1025.1 |
| 20260906072834 | 15 | 224 | 12.9 | 22.5 | 0.00 | 0.51 | 0.00 | 80 | 1025.1 |
| 20260906072333 | 15 | 293 | 8.0 | 16.1 | 0.00 | 0.51 | 0.00 | 81 | 1025.0 |
| 20260906071853 | 14 | 243 | 9.7 | 17.7 | 0.00 | 0.51 | 0.00 | 81 | 1025.0 |
| 20260906071331 | 14 | 264 | 8.0 | 24.1 | 0.00 | 0.51 | 0.00 | 81 | 1024.9 |
| 20260906070831 | 14 | 278 | 4.8 | 24.1 | 0.00 | 0.51 | 0.00 | 82 | 1024.9 |
| 20260906070332 | 13 | 289 | 9.7 | 19.3 | 0.00 | 0.51 | 0.00 | 83 | 1024.8 |
| 20260906065813 | 13 | 258 | 9.7 | 17.7 | 0.00 | 0.51 | 0.00 | 83 | 1025.0 |
| 20260906065333 | 13 | 287 | 4.8 | 20.9 | 0.00 | 0.51 | 0.00 | 84 | 1024.8 |
| 20260906064844 | 13 | 259 | 11.3 | 22.5 | 0.00 | 0.51 | 0.00 | 85 | 1024.8 |
| 20260906064324 | 13 | 270 | 12.9 | 22.5 | 0.00 | 0.51 | 0.00 | 84 | 1024.7 |
| 20260906063825 | 13 | 264 | 9.7 | 19.3 | 0.00 | 0.51 | 0.00 | 84 | 1024.9 |
| 20260906063328 | 13 | 259 | 8.0 | 25.7 | 0.00 | 0.51 | 0.00 | 85 | 1024.6 |
| 20260906062832 | 13 | 282 | 9.7 | 20.9 | 0.00 | 0.51 | 0.00 | 85 | 1024.5 |
| 20260906062315 | 13 | 273 | 9.7 | 24.1 | 0.00 | 0.51 | 0.00 | 85 | 1024.5 |
| 20260906061818 | 12 | 290 | 11.3 | 24.1 | 0.00 | 0.51 | 0.00 | 86 | 1024.4 |
| 20260906061320 | 12 | 281 | 8.0 | 20.9 | 0.00 | 0.51 | 0.00 | 86 | 1024.4 |
| 20260906060824 | 12 | 262 | 11.3 | 20.9 | 0.00 | 0.51 | 0.00 | 86 | 1024.2 |
| 20260906060326 | 12 | 262 | 8.0 | 19.3 | 0.00 | 0.51 | 0.00 | 86 | 1024.1 |
| 20260906055828 | 12 | 272 | 9.7 | 20.9 | 0.00 | 0.51 | 0.00 | 86 | 1024.1 |
| 20260906055332 | 12 | 273 | 9.7 | 17.7 | 0.00 | 0.51 | 0.00 | 86 | 1024.1 |
| 20260906054814 | 12 | 282 | 4.8 | 22.5 | 0.00 | 0.51 | 0.00 | 87 | 1023.9 |
| 20260906054315 | 12 | 257 | 11.3 | 22.5 | 0.00 | 0.51 | 0.00 | 86 | 1023.8 |
| 20260906053837 | 12 | 287 | 11.3 | 20.9 | 0.00 | 0.51 | 0.00 | 86 | 1023.8 |
| 20260906053315 | 12 | 263 | 8.0 | 20.9 | 0.00 | 0.51 | 0.00 | 87 | 1023.7 |
| 20260906052817 | 12 | 274 | 4.8 | 24.1 | 0.00 | 0.51 | 0.00 | 88 | 1023.7 |
| 20260906052317 | 12 | 277 | 16.1 | 24.1 | 0.00 | 0.51 | 0.00 | 87 | 1023.7 |
| 20260906051819 | 12 | 271 | 8.0 | 17.7 | 0.00 | 0.51 | 0.00 | 88 | 1023.6 |
| 20260906051321 | 12 | 286 | 8.0 | 17.7 | 0.00 | 0.51 | 0.00 | 88 | 1023.6 |
| 20260906050824 | 12 | 276 | 8.0 | 19.3 | 0.00 | 0.51 | 0.00 | 88 | 1023.6 |
| 20260906050326 | 12 | 255 | 8.0 | 19.3 | 0.00 | 0.51 | 0.00 | 88 | 1023.5 |
| 20260906045829 | 12 | 281 | 9.7 | 17.7 | 0.00 | 0.51 | 0.00 | 88 | 1023.6 |
| 20260906045351 | 12 | 287 | 8.0 | 16.1 | 0.00 | 0.51 | 0.00 | 88 | 1023.5 |
| 20260906044812 | 12 | 278 | 8.0 | 16.1 | 0.00 | 0.51 | 0.00 | 88 | 1023.5 |
| 20260906044315 | 12 | 222 | 9.7 | 16.1 | 0.00 | 0.51 | 0.00 | 88 | 1023.5 |
| 20260906043816 | 12 | 271 | 8.0 | 14.5 | 0.00 | 0.51 | 0.00 | 88 | 1023.4 |
| 20260906043318 | 12 | 271 | 8.0 | 17.7 | 0.00 | 0.51 | 0.00 | 88 | 1023.4 |
| 20260906042840 | 12 | 264 | 9.7 | 17.7 | 0.00 | 0.51 | 0.00 | 88 | 1023.3 |
| 20260906042322 | 12 | 243 | 9.7 | 16.1 | 0.00 | 0.51 | 0.00 | 88 | 1023.2 |
| 20260906041825 | 12 | 286 | 6.4 | 17.7 | 0.00 | 0.51 | 0.00 | 88 | 1023.1 |
| 20260906041327 | 12 | 271 | 8.0 | 17.7 | 0.00 | 0.51 | 0.00 | 88 | 1023.1 |
| 20260906040821 | 12 | 277 | 4.8 | 17.7 | 0.00 | 0.51 | 0.00 | 88 | 1023.0 |
| 20260906040321 | 12 | 281 | 8.0 | 17.7 | 0.00 | 0.51 | 0.00 | 87 | 1023.1 |
| 20260906035822 | 12 | 267 | 8.0 | 14.5 | 0.00 | 0.51 | 0.00 | 87 | 1023.0 |
| 20260906035343 | 12 | 276 | 6.4 | 16.1 | 0.00 | 0.51 | 0.00 | 87 | 1022.9 |
| 20260906034823 | 12 | 281 | 9.7 | 16.1 | 0.00 | 0.51 | 0.00 | 87 | 1022.9 |
| 20260906034323 | 12 | 246 | 9.7 | 17.7 | 0.00 | 0.51 | 0.00 | 87 | 1022.8 |
| 20260906033825 | 12 | 276 | 4.8 | 19.3 | 0.00 | 0.51 | 0.00 | 87 | 1022.8 |
| 20260906033349 | 12 | 217 | 6.4 | 19.3 | 0.00 | 0.51 | 0.00 | 87 | 1022.8 |
| 20260906032320 | 12 | 278 | 8.0 | 17.7 | 0.00 | 0.51 | 0.00 | 87 | 1022.7 |
| 20260906031824 | 12 | 280 | 8.0 | 17.7 | 0.00 | 0.51 | 0.00 | 87 | 1022.6 |
| 20260906031327 | 12 | 257 | 6.4 | 17.7 | 0.00 | 0.51 | 0.00 | 87 | 1022.6 |
| 20260906030828 | 12 | 265 | 9.7 | 17.7 | 0.00 | 0.51 | 0.00 | 87 | 1022.6 |
| 20260906030349 | 12 | 268 | 6.4 | 16.1 | 0.00 | 0.51 | 0.00 | 87 | 1022.5 |
| 20260906025827 | 12 | 282 | 8.0 | 16.1 | 0.00 | 0.51 | 0.00 | 87 | 1022.5 |
| 20260906025326 | 12 | 270 | 8.0 | 20.9 | 0.00 | 0.51 | 0.00 | 87 | 1022.5 |
| 20260906024826 | 12 | 273 | 11.3 | 20.9 | 0.00 | 0.51 | 0.00 | 87 | 1022.5 |
| 20260906024326 | 12 | 261 | 6.4 | 17.7 | 0.00 | 0.51 | 0.00 | 87 | 1022.4 |
| 20260906023825 | 12 | 269 | 8.0 | 17.7 | 0.00 | 0.51 | 0.00 | 87 | 1022.4 |
| 20260906023346 | 12 | 275 | 8.0 | 17.7 | 0.00 | 0.51 | 0.00 | 87 | 1022.4 |
| 20260906022827 | 13 | 255 | 8.0 | 17.7 | 0.00 | 0.51 | 0.00 | 87 | 1022.4 |
| 20260906022329 | 12 | 271 | 6.4 | 16.1 | 0.00 | 0.51 | 0.00 | 87 | 1022.4 |
| 20260906021812 | 13 | 267 | 8.0 | 16.1 | 0.00 | 0.51 | 0.00 | 87 | 1022.4 |
| 20260906021314 | 13 | 249 | 8.0 | 12.9 | 0.00 | 0.51 | 0.00 | 87 | 1022.3 |
| 20260906020815 | 13 | 257 | 6.4 | 14.5 | 0.00 | 0.51 | 0.00 | 87 | 1022.3 |
| 20260906020318 | 13 | 259 | 4.8 | 16.1 | 0.00 | 0.51 | 0.00 | 87 | 1022.2 |
| 20260906015328 | 13 | 274 | 8.0 | 22.5 | 0.00 | 0.51 | 0.00 | 87 | 1022.1 |
| 20260906014832 | 13 | 269 | 4.8 | 19.3 | 0.00 | 0.51 | 0.00 | 87 | 1022.2 |
| 20260906014315 | 13 | 243 | 6.4 | 19.3 | 0.00 | 0.51 | 0.00 | 88 | 1022.0 |
| 20260906013818 | 13 | 289 | 8.0 | 14.5 | 0.00 | 0.51 | 0.00 | 88 | 1021.9 |
| 20260906013320 | 13 | 278 | 4.8 | 16.1 | 0.00 | 0.51 | 0.00 | 88 | 1021.8 |
| 20260906012823 | 13 | 268 | 9.7 | 17.7 | 0.00 | 0.51 | 0.00 | 88 | 1021.8 |
| 20260906012345 | 13 | 269 | 6.4 | 17.7 | 0.00 | 0.51 | 0.00 | 88 | 1021.8 |
| 20260906011827 | 13 | 273 | 4.8 | 17.7 | 0.00 | 0.51 | 0.00 | 88 | 1021.7 |
| 20260906011349 | 13 | 271 | 6.4 | 14.5 | 0.00 | 0.51 | 0.00 | 88 | 1021.7 |
| 20260906010830 | 13 | 254 | 9.7 | 14.5 | 0.00 | 0.51 | 0.00 | 88 | 1021.7 |
| 20260906010349 | 13 | 275 | 9.7 | 16.1 | 0.00 | 0.51 | 0.00 | 88 | 1021.6 |
| 20260906005815 | 13 | 256 | 8.0 | 14.5 | 0.00 | 0.51 | 0.00 | 88 | 1021.6 |
| 20260906005316 | 13 | 267 | 4.8 | 14.5 | 0.00 | 0.51 | 0.00 | 88 | 1021.5 |
| 20260906004820 | 13 | 270 | 4.8 | 12.9 | 0.00 | 0.51 | 0.00 | 88 | 1021.5 |
| 20260906004324 | 13 | 262 | 4.8 | 12.9 | 0.00 | 0.51 | 0.00 | 88 | 1021.6 |
| 20260906003826 | 13 | 271 | 6.4 | 12.9 | 0.00 | 0.51 | 0.00 | 87 | 1021.5 |
| 20260906003330 | 13 | 275 | 6.4 | 14.5 | 0.00 | 0.51 | 0.00 | 87 | 1021.5 |
| 20260906002813 | 13 | 261 | 4.8 | 12.9 | 0.00 | 0.51 | 0.00 | 86 | 1021.5 |
| 20260906002334 | 13 | 285 | 6.4 | 19.3 | 0.00 | 0.51 | 0.00 | 86 | 1021.4 |
| 20260906001814 | 13 | 263 | 6.4 | 19.3 | 0.00 | 0.51 | 0.00 | 86 | 1021.4 |
| 20260906001331 | 13 | 281 | 6.4 | 16.1 | 0.00 | 0.51 | 0.00 | 86 | 1021.4 |
| 20260906000851 | 13 | 278 | 8.0 | 20.9 | 0.00 | 0.51 | 0.00 | 86 | 1021.5 |
| 20260906000333 | 13 | 224 | 8.0 | 20.9 | 0.00 | 0.51 | 0.00 | 86 | 1021.4 |
| 20260905235812 | 13 | 269 | 9.7 | 19.3 | 0.00 | 0.51 | 0.00 | 86 | 1021.3 |
| 20260905235313 | 13 | 258 | 8.0 | 19.3 | 0.00 | 0.51 | 0.00 | 86 | 1021.3 |
| 20260905234812 | 13 | 260 | 9.7 | 20.9 | 0.00 | 0.51 | 0.00 | 85 | 1021.2 |
| 20260905234316 | 13 | 262 | 9.7 | 20.9 | 0.00 | 0.51 | 0.00 | 85 | 1021.2 |
| 20260905233819 | 13 | 281 | 8.0 | 16.1 | 0.00 | 0.51 | 0.00 | 85 | 1021.1 |
| 20260905233322 | 13 | 244 | 8.0 | 20.9 | 0.00 | 0.51 | 0.00 | 85 | 1021.2 |
| 20260905232323 | 13 | 260 | 8.0 | 17.7 | 0.00 | 0.51 | 0.00 | 85 | 1021.2 |
| 20260905231825 | 14 | 252 | 9.7 | 17.7 | 0.00 | 0.51 | 0.00 | 85 | 1021.1 |
| 20260905231328 | 14 | 268 | 8.0 | 19.3 | 0.00 | 0.51 | 0.00 | 85 | 1021.0 |
| 20260905230830 | 14 | 282 | 9.7 | 16.1 | 0.00 | 0.51 | 0.00 | 84 | 1021.0 |
| 20260905230332 | 14 | 275 | 8.0 | 19.3 | 0.00 | 0.51 | 0.00 | 84 | 1020.9 |
| 20260905225814 | 14 | 277 | 9.7 | 22.5 | 0.00 | 0.51 | 0.00 | 83 | 1020.9 |
| 20260905225317 | 14 | 283 | 14.5 | 22.5 | 0.00 | 0.51 | 0.00 | 83 | 1020.9 |
| 20260905224820 | 14 | 260 | 9.7 | 20.9 | 0.00 | 0.51 | 0.00 | 83 | 1021.0 |
| 20260905224323 | 14 | 289 | 9.7 | 19.3 | 0.00 | 0.51 | 0.00 | 83 | 1020.9 |
| 20260905223826 | 14 | 274 | 11.3 | 19.3 | 0.00 | 0.51 | 0.00 | 84 | 1020.9 |
| 20260905223329 | 14 | 276 | 8.0 | 22.5 | 0.00 | 0.51 | 0.00 | 84 | 1020.8 |
| 20260905222827 | 14 | 236 | 8.0 | 19.3 | 0.00 | 0.51 | 0.00 | 85 | 1020.8 |
| 20260905222328 | 14 | 283 | 6.4 | 25.7 | 0.00 | 0.51 | 0.00 | 86 | 1020.8 |
| 20260905221830 | 14 | 246 | 6.4 | 16.1 | 0.00 | 0.51 | 0.00 | 87 | 1020.6 |
| 20260905221332 | 14 | 274 | 6.4 | 14.5 | 0.00 | 0.51 | 0.00 | 87 | 1020.7 |
| 20260905220816 | 14 | 263 | 8.0 | 12.9 | 0.00 | 0.51 | 0.00 | 88 | 1020.6 |
| 20260905220338 | 13 | 269 | 8.0 | 14.5 | 0.00 | 0.51 | 0.00 | 88 | 1020.7 |
| 20260905215832 | 13 | 263 | 6.4 | 16.1 | 0.00 | 0.51 | 0.10 | 88 | 1020.7 |
| 20260905215314 | 13 | 260 | 4.8 | 14.5 | 0.00 | 0.51 | 0.10 | 88 | 1020.6 |
| 20260905214815 | 13 | 267 | 4.8 | 12.9 | 0.00 | 0.51 | 0.10 | 88 | 1020.5 |
| 20260905214318 | 13 | 235 | 9.7 | 12.9 | 0.00 | 0.51 | 0.10 | 88 | 1020.5 |
| 20260905213818 | 13 | 269 | 4.8 | 11.3 | 0.00 | 0.51 | 0.10 | 88 | 1020.5 |
| 20260905213338 | 13 | 269 | 4.8 | 9.7 | 0.00 | 0.51 | 0.10 | 88 | 1020.4 |
| 20260905212817 | 13 | 252 | 4.8 | 9.7 | 0.00 | 0.51 | 0.10 | 88 | 1020.4 |
| 20260905212317 | 14 | 256 | 4.8 | 11.3 | 0.00 | 0.51 | 0.10 | 88 | 1020.3 |
| 20260905211817 | 14 | 261 | 6.4 | 14.5 | 0.00 | 0.51 | 0.10 | 88 | 1020.2 |
| 20260905211318 | 14 | 257 | 4.8 | 11.3 | 0.00 | 0.51 | 0.10 | 87 | 1020.2 |
| 20260905210819 | 14 | 265 | 3.2 | 9.7 | 0.00 | 0.51 | 0.10 | 87 | 1020.1 |
| 20260905210339 | 14 | 270 | 3.2 | 11.3 | 0.00 | 0.51 | 0.10 | 86 | 1020.1 |
| 20260905205838 | 14 | 270 | 4.8 | 11.3 | 0.00 | 1.30 | 0.10 | 86 | 1020.2 |
| 20260905205319 | 14 | 275 | 4.8 | 16.1 | 0.00 | 1.30 | 0.10 | 85 | 1020.1 |
| 20260905204821 | 14 | 269 | 8.0 | 17.7 | 0.00 | 1.30 | 0.10 | 85 | 1020.1 |
| 20260905204324 | 14 | 245 | 6.4 | 17.7 | 0.00 | 1.30 | 0.10 | 86 | 1020.0 |
| 20260905203828 | 14 | 259 | 6.4 | 14.5 | 0.00 | 1.30 | 0.10 | 86 | 1019.9 |
| 20260905203312 | 14 | 274 | 6.4 | 16.1 | 0.00 | 1.30 | 0.10 | 86 | 1019.9 |
| 20260905202814 | 15 | 316 | 8.0 | 17.7 | 0.00 | 1.30 | 0.10 | 86 | 1019.8 |
| 20260905202315 | 15 | 274 | 8.0 | 20.9 | 0.00 | 1.30 | 0.10 | 85 | 1019.9 |
| 20260905201816 | 15 | 281 | 9.7 | 24.1 | 0.00 | 1.30 | 0.10 | 85 | 1019.9 |
| 20260905201317 | 15 | 267 | 9.7 | 24.1 | 0.00 | 1.30 | 0.10 | 86 | 1019.8 |
| 20260905200820 | 15 | 281 | 9.7 | 20.9 | 0.00 | 1.30 | 0.10 | 86 | 1019.7 |
| 20260905200322 | 15 | 275 | 6.4 | 20.9 | 0.00 | 1.30 | 0.10 | 86 | 1019.8 |
| 20260905195825 | 15 | 259 | 9.7 | 16.1 | 0.00 | 1.80 | 0.10 | 86 | 1019.7 |
| 20260905195348 | 15 | 265 | 6.4 | 16.1 | 0.00 | 1.80 | 0.10 | 86 | 1019.6 |
| 20260905194830 | 15 | 286 | 8.0 | 16.1 | 0.00 | 1.80 | 0.10 | 86 | 1019.5 |
| 20260905194331 | 15 | 276 | 8.0 | 20.9 | 0.00 | 1.80 | 0.10 | 86 | 1019.5 |
| 20260905193830 | 15 | 272 | 11.3 | 22.5 | 0.00 | 1.80 | 0.10 | 86 | 1019.5 |
| 20260905193330 | 15 | 274 | 14.5 | 22.5 | 0.00 | 1.80 | 0.10 | 87 | 1019.4 |
| 20260905192831 | 15 | 211 | 6.4 | 19.3 | 0.00 | 1.80 | 0.10 | 88 | 1019.3 |
| 20260905192312 | 15 | 260 | 4.8 | 19.3 | 0.00 | 1.80 | 0.10 | 88 | 1019.3 |
| 20260905191834 | 15 | 269 | 6.4 | 20.9 | 0.00 | 1.80 | 0.10 | 88 | 1019.2 |
| 20260905191329 | 15 | 263 | 8.0 | 20.9 | 0.00 | 1.80 | 0.10 | 89 | 1019.2 |
| 20260905190832 | 15 | 270 | 8.0 | 16.1 | 0.00 | 1.80 | 0.10 | 89 | 1019.0 |
| 20260905190313 | 14 | 214 | 8.0 | 14.5 | 0.00 | 1.80 | 0.10 | 89 | 1019.0 |
| 20260905185815 | 14 | 280 | 4.8 | 16.1 | 0.00 | 2.49 | 0.10 | 89 | 1018.9 |
| 20260905185338 | 14 | 251 | 6.4 | 14.5 | 0.00 | 2.49 | 0.10 | 89 | 1018.8 |
| 20260905184820 | 14 | 263 | 9.7 | 14.5 | 0.00 | 2.49 | 0.10 | 89 | 1018.9 |
| 20260905184322 | 14 | 274 | 9.7 | 16.1 | 0.00 | 2.49 | 0.10 | 89 | 1018.8 |
| 20260905183825 | 14 | 267 | 8.0 | 17.7 | 0.00 | 2.49 | 0.10 | 89 | 1018.8 |
| 20260905183328 | 14 | 262 | 6.4 | 17.7 | 0.00 | 2.49 | 0.10 | 89 | 1018.9 |
| 20260905182829 | 14 | 271 | 9.7 | 19.3 | 0.10 | 2.49 | 0.10 | 89 | 1018.9 |
| 20260905182331 | 14 | 267 | 12.9 | 20.9 | 0.51 | 2.49 | 0.10 | 90 | 1018.8 |
| 20260905181814 | 14 | 244 | 8.0 | 20.9 | 0.51 | 2.49 | 0.10 | 90 | 1018.7 |
| 20260905181318 | 14 | 274 | 8.0 | 16.1 | 0.51 | 2.49 | 0.10 | 90 | 1018.8 |
| 20260905180822 | 14 | 263 | 8.0 | 16.1 | 0.51 | 2.49 | 0.10 | 90 | 1018.6 |
| 20260905180323 | 14 | 251 | 8.0 | 16.1 | 0.51 | 2.49 | 0.10 | 90 | 1018.6 |
| 20260905175825 | 14 | 253 | 6.4 | 16.1 | 0.51 | 2.49 | 0.10 | 90 | 1018.5 |
| 20260905175329 | 14 | 262 | 9.7 | 16.1 | 0.51 | 2.49 | 0.10 | 89 | 1018.7 |
| 20260905174832 | 15 | 309 | 6.4 | 17.7 | 0.51 | 2.49 | 0.10 | 88 | 1018.5 |
| 20260905174334 | 15 | 295 | 4.8 | 17.7 | 0.51 | 2.49 | 0.10 | 88 | 1018.4 |
| 20260905173816 | 15 | 288 | 6.4 | 24.1 | 0.51 | 2.49 | 0.10 | 87 | 1018.6 |
| 20260905173316 | 15 | 345 | 11.3 | 27.4 | 0.51 | 2.49 | 0.10 | 86 | 1018.6 |
| 20260905172818 | 16 | 347 | 9.7 | 27.4 | 0.30 | 2.31 | 0.05 | 83 | 1018.6 |
| 20260905172319 | 17 | 334 | 12.9 | 27.4 | 0.00 | 2.01 | 0.00 | 79 | 1018.5 |
| 20260905171819 | 17 | 8 | 8.0 | 19.3 | 0.00 | 2.01 | 0.00 | 75 | 1018.4 |
| 20260905171320 | 17 | 347 | 3.2 | 16.1 | 0.00 | 2.01 | 0.00 | 76 | 1018.0 |
| 20260905170841 | 17 | 262 | 8.0 | 14.5 | 0.00 | 2.01 | 0.00 | 77 | 1017.7 |
| 20260905170320 | 16 | 265 | 1.6 | 11.3 | 0.00 | 2.01 | 0.00 | 79 | 1017.6 |
| 20260905165838 | 17 | 324 | 4.8 | 11.3 | 0.00 | 3.40 | 0.00 | 79 | 1017.6 |
| 20260905165337 | 16 | 279 | 3.2 | 16.1 | 0.00 | 3.40 | 0.00 | 79 | 1017.5 |
| 20260905164818 | 16 | 319 | 6.4 | 19.3 | 0.00 | 3.40 | 0.00 | 80 | 1017.5 |
| 20260905164320 | 16 | 354 | 6.4 | 19.3 | 0.00 | 3.40 | 0.00 | 79 | 1017.4 |
| 20260905163820 | 17 | 312 | 3.2 | 14.5 | 0.00 | 3.40 | 0.00 | 78 | 1017.4 |
| 20260905163321 | 17 | 333 | 4.8 | 22.5 | 0.00 | 3.40 | 0.00 | 77 | 1017.4 |
| 20260905162823 | 18 | 6 | 9.7 | 24.1 | 0.00 | 3.40 | 0.00 | 73 | 1017.4 |
| 20260905162324 | 19 | 279 | 9.7 | 35.4 | 0.00 | 3.40 | 0.00 | 68 | 1017.4 |
| 20260905161828 | 19 | 326 | 8.0 | 19.3 | 0.00 | 3.40 | 0.00 | 64 | 1017.4 |
| 20260905161329 | 19 | 331 | 9.7 | 20.9 | 0.00 | 3.40 | 0.00 | 64 | 1017.0 |
| 20260905160832 | 19 | 339 | 8.0 | 22.5 | 0.00 | 3.40 | 0.00 | 64 | 1016.7 |
| 20260905160316 | 18 | 340 | 8.0 | 30.6 | 0.00 | 3.40 | 0.00 | 66 | 1016.6 |
| 20260905155819 | 18 | 278 | 6.4 | 30.6 | 0.00 | 3.40 | 0.00 | 66 | 1016.5 |
| 20260905155322 | 18 | 294 | 11.3 | 24.1 | 0.00 | 3.40 | 0.00 | 66 | 1016.4 |
| 20260905154823 | 19 | 284 | 9.7 | 43.5 | 0.00 | 3.40 | 0.00 | 66 | 1016.5 |
| 20260905154343 | 20 | 297 | 22.5 | 43.5 | 0.00 | 3.40 | 0.00 | 60 | 1016.6 |
| 20260905153823 | 20 | 281 | 12.9 | 35.4 | 0.00 | 3.40 | 0.00 | 57 | 1016.1 |
| 20260905153323 | 20 | 248 | 12.9 | 25.7 | 0.00 | 3.40 | 0.00 | 57 | 1016.0 |
| 20260905152844 | 21 | 354 | 11.3 | 33.8 | 0.00 | 3.40 | 0.00 | 57 | 1015.7 |
| 20260905152323 | 21 | 287 | 16.1 | 33.8 | 0.00 | 3.40 | 0.00 | 56 | 1015.8 |
| 20260905151843 | 21 | 271 | 9.7 | 29.0 | 0.00 | 3.40 | 0.00 | 57 | 1015.6 |
| 20260905151321 | 21 | 269 | 14.5 | 29.0 | 0.00 | 3.40 | 0.00 | 56 | 1015.6 |
| 20260905150822 | 21 | 258 | 11.3 | 33.8 | 0.00 | 3.40 | 0.00 | 56 | 1015.6 |
| 20260905150323 | 21 | 274 | 9.7 | 33.8 | 0.00 | 3.40 | 0.00 | 55 | 1015.5 |
| 20260905145824 | 21 | 282 | 11.3 | 29.0 | 0.00 | 3.40 | 0.00 | 54 | 1015.5 |
| 20260905145323 | 21 | 277 | 19.3 | 41.8 | 0.00 | 3.40 | 0.00 | 54 | 1015.5 |
| 20260905144823 | 21 | 282 | 17.7 | 41.8 | 0.00 | 3.40 | 0.00 | 54 | 1015.5 |
| 20260905144344 | 21 | 310 | 14.5 | 35.4 | 0.00 | 3.40 | 0.00 | 54 | 1015.6 |
| 20260905143824 | 21 | 248 | 19.3 | 41.8 | 0.00 | 3.40 | 0.00 | 55 | 1015.6 |
| 20260905143325 | 21 | 287 | 17.7 | 38.6 | 0.00 | 3.40 | 0.00 | 55 | 1015.6 |
| 20260905142825 | 21 | 275 | 9.7 | 30.6 | 0.00 | 3.40 | 0.00 | 59 | 1015.6 |
| 20260905142327 | 21 | 269 | 19.3 | 30.6 | 0.00 | 3.40 | 0.00 | 59 | 1015.7 |
| 20260905141830 | 21 | 269 | 9.7 | 27.4 | 0.00 | 3.40 | 0.00 | 60 | 1015.5 |
| 20260905141331 | 21 | 270 | 9.7 | 27.4 | 0.00 | 3.40 | 0.00 | 60 | 1015.5 |
| 20260905140814 | 21 | 277 | 11.3 | 38.6 | 0.00 | 3.40 | 0.00 | 59 | 1015.4 |
| 20260905140316 | 21 | 286 | 20.9 | 43.5 | 0.00 | 3.40 | 0.00 | 59 | 1015.4 |
| 20260905135838 | 22 | 266 | 19.3 | 43.5 | 0.00 | 3.40 | 0.00 | 57 | 1015.6 |
| 20260905135319 | 22 | 269 | 6.4 | 40.2 | 0.00 | 3.40 | 0.00 | 58 | 1015.2 |
| 20260905134822 | 21 | 233 | 9.7 | 25.7 | 0.00 | 3.40 | 0.00 | 58 | 1015.2 |
| 20260905134345 | 21 | 272 | 12.9 | 25.7 | 0.00 | 3.40 | 0.00 | 58 | 1015.2 |
| 20260905133827 | 21 | 224 | 6.4 | 32.2 | 0.00 | 3.40 | 0.00 | 60 | 1015.2 |
| 20260905133330 | 21 | 275 | 14.5 | 32.2 | 0.00 | 3.40 | 0.00 | 59 | 1015.4 |